Zurück zum Katalog

STARLINK-11520

AktivKommunikationVLEO
NORAD 62834·PAYLOAD·🇺🇸 United States

Gestartet Jan 27, 2025 von Cape Canaveral Space Force Station

Loading…

Nächste Überflüge (nächste 24 Stunden)

TLE

AktuellSource: CelesTrak SupGP

Epoche: Sep 15, 2026, 02:32 UTC

1 62834C 25019F   26258.10604167 -.00047269  00000+0 -36699-3 0  2581
2 62834  43.0007 244.0227 0001508 265.3459  89.3397 15.70872123    14

Verfolge STARLINK-11520 in Echtzeit mit AllMySat

Download on the App Store